contact:dominique.lefevre@mio.osupytheas.fr, maurice.libes@osupytheas.fr, didier.mallarino@osupytheas.fr
Project:EMSO http://www.emso-fr.org/EMSO-France
Depth: 2436.0 m
Title:EMSO Ligure Ouest : Data MII capteur AQUADOPP
Date,Latitude,Longitude,X_East,Y_North,Z_Up,Amplitude_X,Amplitude_Y,Amplitude_Z,Batterie,SoundSpeed,Heading,Pitch,Roll,Pressure,TIS,Speed,Direction
, degrees North, degrees East, m.s-1, m.s-1,m.s-1, 1, 1, 1, Volt, m.s-1, degree, degree, degree, dbar, degree_C, m.s-1, degree
2023-06-05T00:04:03,42.805,6.029,0.01,-0.01,-0.029,101.0,101.0,101.0,13.4,1505.2,328.8,-0.8,1.8,2471.514,13.29,0.014,135.0
2023-06-05T00:07:03,42.805,6.029,0.004,0.011,0.003,101.0,101.0,101.0,13.4,1505.2,337.4,-0.8,1.8,2471.459,13.29,0.011,20.0
2023-06-05T00:10:03,42.805,6.029,-0.021,0.009,-0.048,101.0,101.0,102.0,13.3,1505.2,335.8,-0.8,1.8,2471.462,13.29,0.022,293.2
2023-06-05T00:13:03,42.805,6.029,-0.01,0.016,-0.01,100.0,103.0,101.0,13.4,1505.2,326.0,-0.8,1.8,2471.471,13.29,0.018,328.0
2023-06-05T00:16:03,42.805,6.029,0.013,0.016,-0.017,102.0,103.0,100.0,13.3,1505.2,350.9,-0.8,1.8,2471.43,13.29,0.02,39.1
2023-06-05T00:19:03,42.805,6.029,-0.027,0.019,-0.042,102.0,101.0,102.0,13.4,1505.2,322.2,-0.7,1.8,2471.45,13.29,0.033,305.1
2023-06-05T00:22:03,42.805,6.029,0.017,0.029,-0.001,103.0,101.0,101.0,13.4,1505.2,328.3,-0.8,1.8,2471.414,13.29,0.033,30.4
2023-06-05T00:25:03,42.805,6.029,0.003,0.011,-0.028,102.0,103.0,101.0,13.3,1505.2,332.9,-0.8,1.8,2471.445,13.29,0.011,15.3
2023-06-05T00:28:03,42.805,6.029,0.001,0.017,-0.007,101.0,102.0,101.0,13.4,1505.2,326.3,-0.8,1.8,2471.418,13.29,0.017,3.4
2023-06-05T00:31:03,42.805,6.029,-0.006,0.016,-0.034,101.0,101.0,103.0,13.4,1505.2,333.8,-0.8,1.8,2471.427,13.29,0.017,339.4
2023-06-05T00:34:03,42.805,6.029,-0.016,0.026,0.003,101.0,101.0,102.0,13.4,1505.2,329.9,-0.8,1.8,2471.428,13.29,0.03,328.4
2023-06-05T00:37:03,42.805,6.029,0.007,0.002,0.001,102.0,103.0,102.0,13.3,1505.2,328.8,-0.8,1.8,2471.437,13.29,0.007,74.1
2023-06-05T00:40:03,42.805,6.029,-0.005,0.0,-0.057,102.0,102.0,100.0,13.4,1505.2,331.3,-0.7,1.8,2471.436,13.29,0.005,270.0
2023-06-05T00:43:03,42.805,6.029,0.012,0.005,-0.036,101.0,101.0,101.0,13.4,1505.2,337.5,-0.8,1.8,2471.424,13.29,0.013,67.4
2023-06-05T00:46:03,42.805,6.029,-0.005,0.006,-0.062,101.0,105.0,102.0,13.4,1505.2,336.6,-0.7,1.8,2471.426,13.29,0.007,320.2
2023-06-05T00:49:03,42.805,6.029,0.009,0.007,-0.006,102.0,102.0,100.0,13.4,1505.2,322.0,-0.7,1.8,2471.408,13.29,0.011,52.1
2023-06-05T00:52:03,42.805,6.029,0.012,0.018,-0.008,102.0,102.0,100.0,13.4,1505.2,329.0,-0.8,1.8,2471.411,13.29,0.021,33.7
2023-06-05T00:55:03,42.805,6.029,0.0,0.023,-0.014,103.0,101.0,101.0,13.3,1505.2,334.4,-0.8,1.8,2471.354,13.29,0.023,0.0
2023-06-05T00:58:03,42.805,6.029,-0.008,0.03,0.002,101.0,102.0,101.0,13.4,1505.2,340.6,-0.7,1.8,2471.41,13.29,0.031,345.1
2023-06-05T01:04:03,42.805,6.029,-0.001,0.0,-0.035,101.0,102.0,103.0,13.3,1505.2,327.5,-0.8,1.8,2471.418,13.29,0.001,270.0
2023-06-05T01:07:03,42.805,6.029,0.007,0.006,-0.014,100.0,102.0,101.0,13.3,1505.2,342.8,-0.8,1.8,2471.441,13.29,0.009,49.4
2023-06-05T01:10:03,42.805,6.029,-0.018,0.011,-0.055,101.0,101.0,101.0,13.3,1505.2,319.8,-0.8,1.8,2471.414,13.29,0.021,301.4
2023-06-05T01:13:03,42.805,6.029,0.003,0.015,-0.002,103.0,99.0,102.0,13.4,1505.2,337.9,-0.8,1.8,2471.418,13.29,0.015,11.3
2023-06-05T01:16:03,42.805,6.029,0.004,0.011,-0.009,100.0,102.0,102.0,13.4,1505.2,327.3,-0.8,1.8,2471.387,13.29,0.011,20.0
2023-06-05T01:19:03,42.805,6.029,-0.002,0.015,-0.039,103.0,103.0,100.0,13.3,1505.2,345.4,-0.8,1.8,2471.391,13.29,0.015,352.4
2023-06-05T01:22:03,42.805,6.029,0.002,0.03,-0.013,102.0,101.0,100.0,13.4,1505.2,322.5,-0.8,1.8,2471.367,13.29,0.03,3.8
2023-06-05T01:25:03,42.805,6.029,0.006,0.013,-0.014,100.0,102.0,101.0,13.4,1505.2,340.8,-0.7,1.8,2471.408,13.29,0.014,24.8
2023-06-05T01:28:03,42.805,6.029,0.006,0.023,-0.002,101.0,102.0,102.0,13.3,1505.2,329.5,-0.8,1.8,2471.414,13.29,0.023,14.6
2023-06-05T01:31:03,42.805,6.029,0.009,0.011,-0.032,102.0,102.0,100.0,13.4,1505.2,347.9,-0.8,1.8,2471.4,13.29,0.014,39.3
2023-06-05T01:34:03,42.805,6.029,-0.005,0.025,-0.046,102.0,102.0,101.0,13.4,1505.2,322.0,-0.8,1.8,2471.373,13.29,0.025,348.7
2023-06-05T01:37:03,42.805,6.029,0.001,0.009,-0.047,101.0,101.0,101.0,13.3,1505.2,338.4,-0.8,1.8,2471.402,13.29,0.009,6.3
2023-06-05T01:40:03,42.805,6.029,-0.002,-0.011,-0.045,104.0,99.0,101.0,13.3,1505.2,346.8,-0.7,1.8,2471.372,13.29,0.011,190.3
2023-06-05T01:43:03,42.805,6.029,0.003,-0.01,-0.024,101.0,101.0,101.0,13.3,1505.2,326.3,-0.7,1.8,2471.357,13.29,0.01,163.3
2023-06-05T01:46:03,42.805,6.029,0.036,0.017,0.011,102.0,103.0,100.0,13.4,1505.2,341.1,-0.8,1.8,2471.37,13.29,0.039,64.7
2023-06-05T01:49:03,42.805,6.029,0.005,-0.007,-0.023,102.0,101.0,101.0,13.4,1505.2,322.4,-0.7,1.9,2471.375,13.29,0.008,144.5
2023-06-05T01:52:03,42.805,6.029,0.0,0.007,-0.01,103.0,100.0,102.0,13.4,1505.2,340.4,-0.8,1.8,2471.365,13.29,0.007,0.0
2023-06-05T01:55:03,42.805,6.029,0.007,0.005,-0.004,103.0,100.0,101.0,13.4,1505.2,338.6,-0.8,1.8,2471.363,13.29,0.008,54.5
2023-06-05T01:58:03,42.805,6.029,-0.018,0.007,-0.02,102.0,102.0,103.0,13.4,1505.2,323.1,-0.8,1.8,2471.379,13.29,0.019,291.2
2023-06-05T02:04:03,42.805,6.029,0.0,0.016,-0.014,103.0,101.0,101.0,13.3,1505.2,329.5,-0.8,1.8,2471.412,13.29,0.016,0.0
2023-06-05T02:07:03,42.805,6.029,-0.002,0.015,-0.02,102.0,102.0,101.0,13.4,1505.2,318.8,-0.8,1.8,2471.394,13.29,0.015,352.4
2023-06-05T02:10:03,42.805,6.029,0.007,0.008,0.019,100.0,102.0,100.0,13.4,1505.2,328.2,-0.7,1.8,2471.417,13.29,0.01,41.2
2023-06-05T02:13:03,42.805,6.029,-0.004,0.011,-0.009,102.0,100.0,101.0,13.4,1505.2,330.1,-0.8,1.8,2471.369,13.29,0.011,340.0
2023-06-05T02:16:03,42.805,6.029,0.006,0.025,0.006,102.0,100.0,101.0,13.4,1505.2,322.0,-0.8,1.8,2471.382,13.29,0.025,13.5
2023-06-05T02:19:03,42.805,6.029,-0.005,0.026,-0.005,101.0,103.0,101.0,13.4,1505.2,330.7,-0.8,1.8,2471.406,13.29,0.026,349.1
2023-06-05T02:22:03,42.805,6.029,0.005,0.01,-0.03,102.0,101.0,101.0,13.3,1505.2,333.4,-0.8,1.8,2471.359,13.29,0.011,26.6
2023-06-05T02:25:03,42.805,6.029,0.01,0.023,0.0,103.0,100.0,103.0,13.4,1505.2,341.2,-0.8,1.8,2471.404,13.29,0.025,23.5
2023-06-05T02:28:03,42.805,6.029,0.0,0.024,-0.008,102.0,102.0,101.0,13.4,1505.2,331.8,-0.8,1.8,2471.373,13.29,0.024,0.0
2023-06-05T02:31:03,42.805,6.029,0.0,0.02,-0.017,104.0,103.0,100.0,13.4,1505.2,337.1,-0.8,1.8,2471.372,13.29,0.02,0.0
2023-06-05T02:34:03,42.805,6.029,0.016,0.0,0.012,102.0,101.0,101.0,13.4,1505.2,336.5,-0.8,1.8,2471.341,13.29,0.016,90.0
2023-06-05T02:37:03,42.805,6.029,0.007,0.013,0.001,102.0,102.0,101.0,13.4,1505.2,341.2,-0.8,1.8,2471.372,13.29,0.014,28.3
2023-06-05T02:40:03,42.805,6.029,0.003,0.015,-0.018,102.0,102.0,100.0,13.4,1505.2,327.8,-0.8,1.8,2471.358,13.29,0.015,11.3
2023-06-05T02:43:03,42.805,6.029,0.02,0.014,0.005,101.0,101.0,101.0,13.4,1505.2,335.0,-0.8,1.8,2471.338,13.29,0.024,55.0
2023-06-05T02:46:03,42.805,6.029,0.022,0.017,-0.015,100.0,102.0,100.0,13.4,1505.2,334.9,-0.8,1.8,2471.367,13.29,0.027,52.3
2023-06-05T02:49:03,42.805,6.029,0.024,-0.007,-0.034,101.0,102.0,101.0,13.4,1505.2,339.5,-0.8,1.8,2471.38,13.29,0.025,106.3
2023-06-05T02:52:03,42.805,6.029,-0.03,0.016,-0.038,102.0,101.0,100.0,13.4,1505.2,330.1,-0.8,1.8,2471.389,13.29,0.034,298.1
2023-06-05T02:55:03,42.805,6.029,0.002,0.033,0.01,102.0,103.0,101.0,13.4,1505.2,345.6,-0.8,1.8,2471.383,13.29,0.033,3.5
2023-06-05T02:58:03,42.805,6.029,0.009,0.007,-0.007,102.0,102.0,101.0,13.3,1505.2,333.4,-0.8,1.8,2471.356,13.29,0.011,52.1
2023-06-05T03:04:03,42.805,6.029,0.005,0.013,0.014,102.0,102.0,100.0,13.3,1505.2,333.4,-0.7,1.8,2471.397,13.29,0.013,21.0
2023-06-05T03:07:03,42.805,6.029,0.0,0.028,-0.004,101.0,101.0,101.0,13.4,1505.2,335.4,-0.8,1.8,2471.386,13.29,0.028,0.0
2023-06-05T03:10:03,42.805,6.029,0.008,0.013,-0.039,102.0,101.0,100.0,13.3,1505.2,336.3,-0.7,1.8,2471.387,13.29,0.015,31.6
2023-06-05T03:13:03,42.805,6.029,0.004,0.003,0.011,101.0,102.0,102.0,13.4,1505.2,336.0,-0.8,1.8,2471.4,13.29,0.005,53.1
2023-06-05T03:16:03,42.805,6.029,-0.007,0.025,-0.004,102.0,100.0,102.0,13.4,1505.2,322.0,-0.8,1.8,2471.371,13.29,0.025,344.4
2023-06-05T03:19:03,42.805,6.029,0.014,-0.018,-0.042,101.0,102.0,101.0,13.4,1505.2,329.0,-0.8,1.8,2471.38,13.29,0.022,142.1
2023-06-05T03:22:03,42.805,6.029,-0.008,0.007,0.006,102.0,101.0,100.0,13.4,1505.2,330.3,-0.8,1.8,2471.36,13.29,0.01,311.2
2023-06-05T03:25:03,42.805,6.029,0.017,0.018,-0.001,101.0,103.0,100.0,13.4,1505.2,338.5,-0.8,1.8,2471.38,13.29,0.024,43.4
2023-06-05T03:28:03,42.805,6.029,-0.005,-0.002,-0.051,99.0,102.0,101.0,13.3,1505.2,338.2,-0.8,1.8,2471.369,13.29,0.005,248.2
2023-06-05T03:31:03,42.805,6.029,-0.014,0.027,-0.001,101.0,102.0,101.0,13.4,1505.2,345.4,-0.7,1.8,2471.394,13.29,0.03,332.6
2023-06-05T03:34:03,42.805,6.029,-0.001,0.019,-0.026,103.0,103.0,101.0,13.4,1505.2,333.4,-0.8,1.8,2471.411,13.29,0.019,357.0
2023-06-05T03:37:03,42.805,6.029,0.015,0.03,-0.003,103.0,101.0,101.0,13.4,1505.2,332.1,-0.8,1.8,2471.359,13.29,0.033,26.6
2023-06-05T03:40:03,42.805,6.029,-0.014,0.025,-0.034,102.0,102.0,100.0,13.3,1505.2,327.6,-0.7,1.8,2471.395,13.29,0.028,330.7
2023-06-05T03:43:03,42.805,6.029,0.004,0.017,-0.005,101.0,102.0,101.0,13.4,1505.2,340.2,-0.8,1.8,2471.367,13.29,0.017,13.2
2023-06-05T03:46:03,42.805,6.029,-0.007,0.027,0.013,101.0,101.0,101.0,13.4,1505.2,331.2,-0.7,1.8,2471.341,13.29,0.027,345.5
2023-06-05T03:49:03,42.805,6.029,-0.024,0.019,-0.042,102.0,102.0,101.0,13.4,1505.2,331.8,-0.8,1.8,2471.366,13.29,0.03,308.4
2023-06-05T03:52:03,42.805,6.029,0.003,0.004,-0.042,102.0,102.0,101.0,13.4,1505.2,346.2,-0.8,1.8,2471.372,13.29,0.005,36.9
2023-06-05T03:55:03,42.805,6.029,0.01,0.022,-0.015,102.0,102.0,101.0,13.3,1505.2,325.0,-0.8,1.8,2471.388,13.29,0.024,24.4
2023-06-05T03:58:03,42.805,6.029,0.011,0.022,-0.029,101.0,102.0,101.0,13.4,1505.2,346.8,-0.8,1.8,2471.39,13.29,0.024,26.6
2023-06-05T04:04:03,42.805,6.029,0.019,0.022,0.003,102.0,102.0,100.0,13.3,1505.2,335.2,-0.8,1.8,2471.417,13.29,0.029,40.8
2023-06-05T04:07:03,42.805,6.029,0.005,0.007,-0.04,103.0,101.0,100.0,13.4,1505.2,346.8,-0.8,1.9,2471.418,13.29,0.008,35.5
2023-06-05T04:10:03,42.805,6.029,-0.017,0.028,-0.032,102.0,102.0,101.0,13.3,1505.2,322.3,-0.7,1.8,2471.412,13.29,0.032,328.7
2023-06-05T04:13:03,42.805,6.029,0.011,0.014,-0.006,102.0,101.0,101.0,13.4,1505.2,338.2,-0.8,1.8,2471.441,13.29,0.017,38.2
2023-06-05T04:16:03,42.805,6.029,0.011,0.018,-0.017,101.0,101.0,101.0,13.4,1505.2,326.0,-0.8,1.8,2471.385,13.29,0.021,31.4
2023-06-05T04:19:03,42.805,6.029,0.016,0.013,-0.017,102.0,101.0,102.0,13.4,1505.2,347.3,-0.8,1.8,2471.397,13.29,0.02,50.9
2023-06-05T04:22:03,42.805,6.029,0.0,0.021,-0.008,101.0,102.0,101.0,13.4,1505.2,345.6,-0.7,1.8,2471.416,13.29,0.021,0.0
2023-06-05T04:25:03,42.805,6.029,0.011,0.023,-0.027,102.0,102.0,101.0,13.4,1505.2,322.6,-0.8,1.9,2471.418,13.29,0.025,25.6
2023-06-05T04:28:03,42.805,6.029,0.0,0.034,-0.016,101.0,102.0,101.0,13.4,1505.2,332.4,-0.8,1.8,2471.389,13.29,0.034,0.0
2023-06-05T04:31:03,42.805,6.029,0.009,0.024,-0.014,103.0,101.0,100.0,13.4,1505.2,341.2,-0.8,1.8,2471.388,13.29,0.025,20.6
2023-06-05T04:34:03,42.805,6.029,0.019,0.02,0.01,101.0,101.0,101.0,13.4,1505.2,334.2,-0.8,1.8,2471.406,13.29,0.027,43.5
2023-06-05T04:37:03,42.805,6.029,0.001,0.02,0.007,101.0,102.0,101.0,13.3,1505.2,328.2,-0.8,1.8,2471.398,13.29,0.02,2.9
2023-06-05T04:40:03,42.805,6.029,-0.013,0.011,-0.023,102.0,101.0,101.0,13.3,1505.2,329.2,-0.8,1.8,2471.378,13.29,0.017,310.2
2023-06-05T04:43:03,42.805,6.029,0.0,0.021,-0.039,102.0,101.0,101.0,13.4,1505.2,330.2,-0.8,1.8,2471.431,13.29,0.021,0.0
2023-06-05T04:46:03,42.805,6.029,-0.001,0.009,-0.014,103.0,102.0,101.0,13.4,1505.2,336.9,-0.7,1.8,2471.414,13.29,0.009,353.7
2023-06-05T04:49:03,42.805,6.029,0.014,0.016,0.002,101.0,102.0,101.0,13.3,1505.2,324.1,-0.8,1.9,2471.412,13.29,0.021,41.2
2023-06-05T04:52:03,42.805,6.029,-0.007,0.027,-0.02,102.0,102.0,101.0,13.4,1505.2,331.4,-0.8,1.8,2471.375,13.29,0.027,345.5
2023-06-05T04:55:03,42.805,6.029,-0.016,0.036,-0.026,102.0,101.0,100.0,13.4,1505.2,329.4,-0.8,1.8,2471.41,13.29,0.039,336.0
2023-06-05T04:58:03,42.805,6.029,-0.006,0.016,0.01,102.0,102.0,102.0,13.4,1505.2,334.8,-0.7,1.8,2471.428,13.29,0.017,339.4
2023-06-05T05:04:03,42.805,6.029,0.005,0.022,-0.016,103.0,102.0,101.0,13.3,1505.2,344.9,-0.8,1.8,2471.431,13.29,0.022,12.8
2023-06-05T05:07:03,42.805,6.029,-0.027,0.03,0.0,102.0,102.0,101.0,13.3,1505.2,321.8,-0.7,1.8,2471.446,13.29,0.04,318.0
2023-06-05T05:10:03,42.805,6.029,0.014,0.024,0.024,103.0,102.0,101.0,13.3,1505.2,336.2,-0.8,1.8,2471.449,13.29,0.027,30.3
2023-06-05T05:13:03,42.805,6.029,0.021,0.0,0.01,101.0,102.0,101.0,13.4,1505.2,345.9,-0.8,1.8,2471.443,13.29,0.021,90.0
2023-06-05T05:16:03,42.805,6.029,0.021,-0.002,-0.036,101.0,102.0,100.0,13.3,1505.2,324.3,-0.7,1.8,2471.397,13.29,0.021,95.4
2023-06-05T05:19:03,42.805,6.029,-0.002,0.034,0.013,102.0,102.0,101.0,13.3,1505.2,330.3,-0.8,1.8,2471.426,13.29,0.034,356.6
2023-06-05T05:22:03,42.805,6.029,0.0,0.03,0.002,102.0,101.0,101.0,13.4,1505.2,330.2,-0.7,1.8,2471.475,13.29,0.03,0.0
2023-06-05T05:25:03,42.805,6.029,0.006,0.005,0.028,101.0,102.0,100.0,13.4,1505.2,336.2,-0.7,1.8,2471.434,13.29,0.007,50.2
2023-06-05T05:28:03,42.805,6.029,0.0,0.027,-0.028,101.0,102.0,101.0,13.3,1505.2,331.8,-0.8,1.8,2471.448,13.29,0.026,0.0
2023-06-05T05:31:03,42.805,6.029,0.0,0.017,-0.003,102.0,102.0,102.0,13.4,1505.2,349.5,-0.8,1.8,2471.44,13.29,0.017,0.0
2023-06-05T05:34:03,42.805,6.029,-0.001,0.028,-0.006,103.0,101.0,101.0,13.4,1505.2,331.8,-0.8,1.8,2471.412,13.29,0.028,358.0
2023-06-05T05:37:03,42.805,6.029,0.0,0.015,0.003,102.0,102.0,101.0,13.4,1505.2,333.9,-0.8,1.8,2471.432,13.29,0.015,0.0
2023-06-05T05:40:03,42.805,6.029,-0.004,0.002,-0.047,103.0,101.0,101.0,13.3,1505.2,348.4,-0.8,1.8,2471.447,13.29,0.004,296.6
2023-06-05T05:43:03,42.805,6.029,-0.002,0.007,-0.015,102.0,101.0,100.0,13.4,1505.2,347.2,-0.8,1.8,2471.433,13.29,0.007,344.1
2023-06-05T05:46:03,42.805,6.029,0.0,0.032,0.032,102.0,101.0,101.0,13.4,1505.2,347.4,-0.8,1.8,2471.446,13.29,0.032,0.0
2023-06-05T05:49:03,42.805,6.029,0.011,0.014,-0.039,102.0,101.0,100.0,13.3,1505.2,339.4,-0.8,1.8,2471.469,13.29,0.017,38.2
2023-06-05T05:52:03,42.805,6.029,0.003,0.03,0.0,103.0,101.0,102.0,13.3,1505.2,340.0,-0.7,1.8,2471.46,13.29,0.03,5.7
2023-06-05T05:55:03,42.805,6.029,0.023,0.03,0.017,103.0,101.0,101.0,13.4,1505.2,323.3,-0.8,1.8,2471.454,13.29,0.037,37.5
2023-06-05T05:58:03,42.805,6.029,-0.007,0.014,-0.008,103.0,103.0,101.0,13.4,1505.2,330.1,-0.8,1.9,2471.457,13.29,0.015,333.4
2023-06-05T06:04:03,42.805,6.029,-0.024,0.021,-0.025,101.0,101.0,102.0,13.4,1505.2,334.8,-0.8,1.8,2471.523,13.29,0.031,311.2
2023-06-05T06:07:03,42.805,6.029,0.003,0.024,0.016,101.0,102.0,100.0,13.3,1505.2,329.0,-0.8,1.8,2471.508,13.29,0.024,7.1
2023-06-05T06:10:03,42.805,6.029,0.019,0.021,0.018,102.0,102.0,101.0,13.4,1505.2,334.6,-0.8,1.8,2471.507,13.29,0.028,42.1
2023-06-05T06:13:03,42.805,6.029,0.017,0.012,-0.004,102.0,103.0,102.0,13.3,1505.2,325.3,-0.8,1.8,2471.488,13.29,0.02,54.8
2023-06-05T06:16:03,42.805,6.029,0.015,0.016,-0.045,102.0,103.0,101.0,13.3,1505.2,324.9,-0.7,1.8,2471.509,13.29,0.021,43.1
2023-06-05T06:19:03,42.805,6.029,0.0,0.035,-0.005,102.0,101.0,101.0,13.3,1505.2,345.9,-0.7,1.8,2471.494,13.29,0.035,0.0
2023-06-05T06:22:03,42.805,6.029,0.016,0.002,-0.024,101.0,101.0,101.0,13.4,1505.2,327.8,-0.8,1.8,2471.483,13.29,0.016,82.9
2023-06-05T06:25:03,42.805,6.029,0.01,0.024,-0.001,102.0,102.0,100.0,13.4,1505.2,324.3,-0.7,1.8,2471.456,13.29,0.026,22.6
2023-06-05T06:28:03,42.805,6.029,-0.019,0.035,-0.013,101.0,102.0,101.0,13.3,1505.2,345.3,-0.8,1.8,2471.5,13.29,0.039,331.5
2023-06-05T06:31:03,42.805,6.029,0.012,0.014,-0.045,101.0,102.0,101.0,13.3,1505.2,329.4,-0.8,1.8,2471.494,13.29,0.018,40.6
2023-06-05T06:34:03,42.805,6.029,0.015,-0.001,0.002,103.0,103.0,101.0,13.4,1505.2,329.9,-0.8,1.8,2471.444,13.29,0.015,93.8
2023-06-05T06:37:03,42.805,6.029,0.014,0.012,0.005,102.0,102.0,102.0,13.4,1505.2,346.8,-0.8,1.8,2471.512,13.29,0.018,49.4
2023-06-05T06:40:03,42.805,6.029,-0.004,0.021,-0.013,103.0,101.0,101.0,13.3,1505.2,320.6,-0.8,1.8,2471.467,13.29,0.021,349.2
2023-06-05T06:43:03,42.805,6.029,0.02,0.021,-0.007,102.0,102.0,101.0,13.3,1505.2,334.9,-0.8,1.8,2471.483,13.29,0.028,43.6
2023-06-05T06:46:03,42.805,6.029,0.008,0.008,-0.009,100.0,102.0,102.0,13.3,1505.2,333.4,-0.8,1.8,2471.495,13.29,0.011,45.0
2023-06-05T06:49:03,42.805,6.029,0.009,0.025,0.007,103.0,102.0,101.0,13.4,1505.2,333.0,-0.8,1.8,2471.476,13.29,0.026,19.8
2023-06-05T06:52:03,42.805,6.029,-0.009,0.03,0.001,102.0,102.0,101.0,13.4,1505.2,339.7,-0.8,1.8,2471.474,13.29,0.031,343.3
2023-06-05T06:55:03,42.805,6.029,0.008,0.035,-0.036,102.0,102.0,101.0,13.4,1505.2,346.2,-0.7,1.8,2471.458,13.29,0.035,12.9
2023-06-05T06:58:03,42.805,6.029,0.004,0.011,-0.023,103.0,102.0,101.0,13.3,1505.2,336.0,-0.8,1.8,2471.496,13.29,0.011,20.0
2023-06-05T07:04:03,42.805,6.029,0.006,0.008,-0.005,102.0,102.0,101.0,13.4,1505.2,320.9,-0.8,1.8,2471.492,13.29,0.01,36.9
2023-06-05T07:07:03,42.805,6.029,-0.003,0.022,0.008,102.0,102.0,102.0,13.4,1505.2,341.2,-0.8,1.8,2471.509,13.29,0.022,352.2
2023-06-05T07:10:03,42.805,6.029,0.007,0.009,-0.024,102.0,102.0,101.0,13.4,1505.2,342.7,-0.8,1.8,2471.527,13.29,0.011,37.9
2023-06-05T07:13:03,42.805,6.029,-0.018,0.026,-0.023,102.0,102.0,101.0,13.3,1505.2,333.8,-0.8,1.8,2471.504,13.29,0.031,325.3
2023-06-05T07:16:03,42.805,6.029,0.001,0.023,-0.031,103.0,101.0,101.0,13.4,1505.2,332.8,-0.8,1.8,2471.505,13.29,0.023,2.5
2023-06-05T07:19:03,42.805,6.029,0.002,0.018,0.006,102.0,102.0,102.0,13.4,1505.2,327.1,-0.8,1.8,2471.483,13.29,0.018,6.3
2023-06-05T07:22:03,42.805,6.029,0.015,0.01,-0.011,102.0,102.0,101.0,13.4,1505.2,333.8,-0.8,1.8,2471.497,13.29,0.018,56.3
2023-06-05T07:25:03,42.805,6.029,0.005,0.012,0.011,103.0,102.0,100.0,13.4,1505.2,335.5,-0.8,1.8,2471.478,13.29,0.013,22.6
2023-06-05T07:28:03,42.805,6.029,-0.003,0.016,-0.041,102.0,102.0,102.0,13.4,1505.2,332.9,-0.8,1.8,2471.48,13.29,0.016,349.4
2023-06-05T07:31:03,42.805,6.029,-0.01,0.02,0.001,102.0,102.0,101.0,13.4,1505.2,331.3,-0.7,1.8,2471.456,13.29,0.022,333.4
2023-06-05T07:34:03,42.805,6.029,-0.013,0.032,-0.012,103.0,102.0,101.0,13.4,1505.2,334.8,-0.8,1.8,2471.513,13.29,0.034,337.9
2023-06-05T07:37:03,42.805,6.029,-0.007,0.024,-0.01,101.0,102.0,101.0,13.4,1505.2,341.9,-0.8,1.8,2471.476,13.29,0.025,343.7
2023-06-05T07:40:03,42.805,6.029,-0.015,0.039,0.0,102.0,102.0,102.0,13.4,1505.2,322.4,-0.8,1.9,2471.465,13.29,0.041,339.0
2023-06-05T07:43:03,42.805,6.029,0.002,0.013,0.017,103.0,103.0,103.0,13.4,1505.2,336.9,-0.7,1.8,2471.481,13.29,0.013,8.7
2023-06-05T07:46:03,42.805,6.029,0.02,-0.007,-0.036,102.0,102.0,101.0,13.3,1505.2,325.4,-0.8,1.8,2471.475,13.29,0.021,109.3
2023-06-05T07:49:03,42.805,6.029,-0.016,0.01,-0.034,100.0,102.0,100.0,13.4,1505.2,332.4,-0.8,1.8,2471.483,13.29,0.018,302.0
2023-06-05T07:52:03,42.805,6.029,0.006,0.019,0.0,103.0,103.0,101.0,13.3,1505.2,336.1,-0.8,1.8,2471.462,13.29,0.019,17.5
2023-06-05T07:55:03,42.805,6.029,-0.008,0.014,-0.011,102.0,103.0,101.0,13.4,1505.2,324.4,-0.8,1.8,2471.472,13.29,0.016,330.3
2023-06-05T07:58:03,42.805,6.029,0.011,0.015,-0.026,102.0,103.0,102.0,13.4,1505.2,328.2,-0.8,1.8,2471.467,13.29,0.018,36.3
2023-06-05T08:04:03,42.805,6.029,-0.006,0.019,-0.035,101.0,103.0,101.0,13.4,1505.2,329.9,-0.7,1.8,2471.513,13.29,0.019,342.5
2023-06-05T08:07:03,42.805,6.029,0.004,0.001,-0.038,102.0,101.0,101.0,13.4,1505.2,329.7,-0.8,1.8,2471.501,13.29,0.004,76.0
2023-06-05T08:10:03,42.805,6.029,-0.014,0.032,-0.014,101.0,102.0,101.0,13.4,1505.2,328.8,-0.7,1.8,2471.498,13.29,0.034,336.4
2023-06-05T08:13:03,42.805,6.029,0.024,0.011,-0.002,101.0,102.0,100.0,13.4,1505.2,344.2,-0.8,1.8,2471.491,13.29,0.026,65.4
2023-06-05T08:16:03,42.805,6.029,0.006,-0.009,-0.022,101.0,103.0,102.0,13.4,1505.2,328.5,-0.7,1.8,2471.443,13.29,0.01,146.3
2023-06-05T08:19:03,42.805,6.029,0.008,0.008,-0.043,102.0,102.0,101.0,13.4,1505.2,327.2,-0.7,1.8,2471.473,13.29,0.011,45.0
2023-06-05T08:22:03,42.805,6.029,0.012,-0.003,-0.016,102.0,102.0,100.0,13.4,1505.2,329.0,-0.8,1.8,2471.489,13.29,0.012,104.0
2023-06-05T08:25:03,42.805,6.029,-0.006,0.015,-0.012,102.0,102.0,101.0,13.3,1505.2,349.5,-0.7,1.8,2471.481,13.29,0.016,338.2
2023-06-05T08:28:03,42.805,6.029,-0.007,0.009,0.001,102.0,103.0,101.0,13.4,1505.2,327.5,-0.8,1.8,2471.449,13.29,0.011,322.1
2023-06-05T08:31:03,42.805,6.029,-0.006,0.022,-0.007,103.0,103.0,101.0,13.3,1505.2,328.3,-0.8,1.8,2471.459,13.29,0.022,344.7
2023-06-05T08:34:03,42.805,6.029,-0.011,0.05,0.0,102.0,101.0,101.0,13.3,1505.2,344.7,-0.8,1.8,2471.492,13.29,0.051,347.6
2023-06-05T08:37:03,42.805,6.029,-0.006,0.008,-0.011,103.0,102.0,100.0,13.4,1505.2,321.4,-0.8,1.8,2471.487,13.29,0.01,323.1
2023-06-05T08:40:03,42.805,6.029,0.013,0.014,-0.005,102.0,102.0,101.0,13.4,1505.2,329.5,-0.8,1.8,2471.479,13.29,0.019,42.9
2023-06-05T08:43:03,42.805,6.029,0.011,0.023,0.004,101.0,102.0,101.0,13.4,1505.2,345.4,-0.8,1.8,2471.479,13.29,0.025,25.6
2023-06-05T08:46:03,42.805,6.029,-0.005,0.022,-0.02,102.0,103.0,104.0,13.4,1505.2,330.9,-0.7,1.8,2471.459,13.29,0.022,347.2
2023-06-05T08:49:03,42.805,6.029,0.01,0.014,-0.022,102.0,103.0,101.0,13.3,1505.2,330.9,-0.8,1.8,2471.438,13.29,0.017,35.5
2023-06-05T08:52:03,42.805,6.029,0.021,0.031,-0.007,102.0,101.0,101.0,13.3,1505.2,328.6,-0.8,1.8,2471.459,13.29,0.037,34.1
2023-06-05T08:55:03,42.805,6.029,0.009,0.019,-0.029,102.0,101.0,101.0,13.4,1505.2,327.3,-0.7,1.8,2471.447,13.29,0.021,25.3
2023-06-05T08:58:03,42.805,6.029,0.007,0.017,-0.017,101.0,102.0,102.0,13.4,1505.2,336.1,-0.8,1.9,2471.465,13.29,0.018,22.4
2023-06-05T09:04:03,42.805,6.029,0.007,0.019,-0.028,101.0,102.0,100.0,13.4,1505.2,321.8,-0.8,1.9,2471.527,13.29,0.02,20.2
2023-06-05T09:07:03,42.805,6.029,0.04,0.025,0.017,103.0,102.0,101.0,13.4,1505.2,338.4,-0.7,1.8,2471.487,13.29,0.047,58.0
2023-06-05T09:10:03,42.805,6.029,0.007,0.018,0.001,102.0,102.0,101.0,13.3,1505.2,333.9,-0.8,1.8,2471.487,13.29,0.019,21.2
2023-06-05T09:13:03,42.805,6.029,0.004,0.01,-0.034,103.0,101.0,101.0,13.4,1505.2,348.2,-0.7,1.8,2471.466,13.29,0.01,21.8
2023-06-05T09:16:03,42.805,6.029,0.018,0.01,-0.049,101.0,101.0,102.0,13.4,1505.2,321.9,-0.8,1.8,2471.421,13.29,0.02,60.9
2023-06-05T09:19:03,42.805,6.029,-0.005,0.019,-0.044,102.0,102.0,100.0,13.4,1505.2,326.0,-0.8,1.8,2471.457,13.29,0.019,345.3
2023-06-05T09:22:03,42.805,6.029,0.0,0.018,-0.016,103.0,103.0,100.0,13.3,1505.2,336.8,-0.8,1.8,2471.447,13.29,0.018,0.0
2023-06-05T09:25:03,42.805,6.029,0.023,0.017,0.016,102.0,102.0,102.0,13.3,1505.2,340.2,-0.8,1.9,2471.499,13.29,0.028,53.5
2023-06-05T09:28:03,42.805,6.029,0.017,-0.004,-0.035,103.0,102.0,101.0,13.3,1505.2,331.9,-0.8,1.8,2471.437,13.29,0.017,103.2
2023-06-05T09:31:03,42.805,6.029,0.028,0.011,0.011,101.0,102.0,100.0,13.3,1505.2,332.4,-0.8,1.8,2471.472,13.29,0.03,68.6
2023-06-05T09:34:03,42.805,6.029,0.013,0.006,-0.007,102.0,103.0,101.0,13.4,1505.2,349.9,-0.7,1.8,2471.432,13.29,0.014,65.2
2023-06-05T09:37:03,42.805,6.029,0.01,0.0,-0.033,101.0,102.0,102.0,13.4,1505.2,345.9,-0.8,1.8,2471.459,13.29,0.01,90.0
2023-06-05T09:40:03,42.805,6.029,0.012,0.005,-0.01,102.0,103.0,101.0,13.3,1505.2,322.2,-0.7,1.8,2471.443,13.29,0.013,67.4
2023-06-05T09:43:03,42.805,6.029,0.025,0.004,-0.005,103.0,101.0,103.0,13.4,1505.2,336.0,-0.8,1.9,2471.399,13.29,0.025,80.9
2023-06-05T09:46:03,42.805,6.029,0.035,-0.008,0.005,103.0,102.0,101.0,13.3,1505.2,340.8,-0.8,1.8,2471.45,13.29,0.035,102.9
2023-06-05T09:49:03,42.805,6.029,0.031,0.019,-0.003,103.0,102.0,102.0,13.3,1505.2,331.0,-0.7,1.8,2471.439,13.29,0.036,58.5
2023-06-05T09:52:03,42.805,6.029,0.0,0.02,-0.045,103.0,101.0,101.0,13.3,1505.2,330.2,-0.8,1.8,2471.411,13.29,0.02,0.0
2023-06-05T09:55:03,42.805,6.029,0.01,0.001,0.001,100.0,102.0,101.0,13.4,1505.2,345.3,-0.8,1.8,2471.428,13.29,0.01,84.3
2023-06-05T09:58:03,42.805,6.029,-0.012,0.017,-0.016,102.0,102.0,102.0,13.4,1505.2,324.8,-0.8,1.8,2471.408,13.29,0.02,324.8
2023-06-05T10:04:03,42.805,6.029,0.022,0.019,0.017,101.0,104.0,102.0,13.4,1505.2,321.2,-0.8,1.8,2471.485,13.29,0.029,49.2